Location: Copeville
(33.0796°N, 96.4155°W)
Time: 20:13:12
(UTC+00:00)

Cosmos 1328 Rocket - Pass Details

Date: 03 July 2022
Orbit: 600 x 627 km, 82.5° (Epoch: 17 August)

Event Time Altitude Azimuth Distance (km) Brightness Sun altitude
Rises 08:24:28 0° 3° (N) 2,901 8.0 -27.7°
Reaches altitude 10° 08:26:51 10° 12° (NNE) 1,986 7.0 -27.4°
Maximum altitude 08:30:56 37° 80° (E) 957 4.8 -27.0°
Enters shadow 08:31:27 36° 97° (E) 981 4.7 -26.9°
